Regional Weather Roundup
Issued by NWS

Home | Current Version | Previous Version | Graphics & Text | Print | Product List | Glossary On
Versions: 1 2 3 4 5 6 7 8 9 10 11 12 13 14 15 16 17 18 19 20 21 22 23 24 25 26 27 28 29 30 31 32 33 34 35 36 37 38 39 40 41 42 43 44 45 46 47 48 49 50
000
ASUS43 KDTX 230810
RWRMI
MICHIGAN HOURLY REGIONAL WEATHER ROUNDUP
NATIONAL WEATHER SERVICE DETROIT/PONTIAC MI
400 AM EDT MON OCT 23 2017

NOTE: "FAIR" INDICATES FEW OR NO CLOUDS BELOW 12,000 FEET WITH NO
SIGNIFICANT WEATHER AND/OR OBSTRUCTION TO VISIBILITY.

MIZ047>049-052>055-059>063-066>070-074>076-081>083-230900-
SOUTHEAST LOWER MICHIGAN

CITY           SKY/WX    TMP DP  RH WIND       PRES   REMARKS
ADRIAN         CLOUDY    62  49  62 S6        29.96F
ALMA           DRIZZLE   57  55  95 NW6G16    29.94F
ANN ARBOR      MOCLDY    59  50  72 CALM      29.96F
BAD AXE        CLOUDY    64  48  56 S10       29.95F
CARO           CLOUDY    66  48  52 S7        29.94F
DETROIT CITY   CLOUDY    64  51  62 S7        29.98F
DETROIT        CLOUDY    63  52  67 S8        29.98F
FLINT          CLOUDY    65  49  56 S8        29.95F
GROSSE ILE     CLOUDY    62  56  82 S6        29.97F
HILLSDALE      CLOUDY    63  48  59 S6        29.94F
HOWELL         CLOUDY    64  49  59 S8        29.95F

CITY           SKY/WX    TMP DP  RH WIND       PRES   REMARKS
JACKSON        CLOUDY    66  49  54 SE7       29.94F
LAMBERTVILLE   CLOUDY    65  49  55 S5        29.96F
LANSING        CLOUDY    66  51  58 S7        29.94F
LAPEER         MOCLDY    63  49  61 S5        29.96F
MASON          CLOUDY    65  53  65 CALM      29.94F
MONROE         CLOUDY    62  51  66 SE5       29.96F
MT. CLEMENS    CLOUDY    59  59 100 S5        29.97F
PONTIAC        CLOUDY    62  51  67 S7        29.96F
PORT HOPE        N/A     66  49  54 VRB5      29.93F
PORT HURON     PTCLDY    64  52  63 S7        29.99S
TRI CITIES     CLOUDY    64  62  93 NW3       29.94F
MIDLAND        LGT RAIN  58  54  85 NW5       29.93F
TROY           CLOUDY    64  51  61 S5        30.00S
SAGINAW HB     CLOUDY    64  52  63 S7        29.93S
$$
MIZ043>046-050>051-056>058-064>065-071>073-077>080-230900-
SOUTHWEST LOWER MICHIGAN

CITY           SKY/WX    TMP DP  RH WIND       PRES   REMARKS
BATTLE CREEK   CLOUDY    63  61  93 N3        29.93F
BENTON HARBOR  HVY RAIN  57  54  89 CALM      29.93F FOG
BIG RAPIDS     MIX PCPN  51  50  95 N3        29.95F
COLDWATER      CLOUDY    64  50  60 S6        29.93F
FREMONT        RAIN      51  51 100 N3        29.95F
HOLLAND        LGT RAIN  54  53  97 N3        29.94F
GRAND RAPIDS   LGT RAIN  56  55  97 N3        29.93F
IONIA          CLOUDY    58  58  99 NW3       29.92F
KALAMAZOO      CLOUDY    60  56  86 N5        29.93F
LUDINGTON      RAIN      50  50  97 CALM      29.96F
MARSHALL       CLOUDY    64  52  64 S5        29.93F
MOUNT PLEASANT DRIZZLE   56  55  94 CALM      29.93F
MUSKEGON       LGT RAIN  53  52  96 N6        29.96F
SOUTH HAVEN    LGT RAIN  56  55  95 CALM      29.93F
$$
MIZ016>042-230900-
NORTHERN LOWER MICHIGAN

CITY           SKY/WX    TMP DP  RH WIND       PRES   REMARKS
ALPENA         LGT RAIN  53  53 100 NW5       29.97F FOG
BEAVER ISLAND  CLOUDY    51  50  97 CALM      29.97S
BELLAIRE       LGT RAIN  50  49  95 CALM      29.97F
CADILLAC       RAIN      52  49  90 CALM      29.96S
CHARLEVOIX     RAIN      51  51 100 CALM      30.00F
FRANKFORT      LGT RAIN  53  53 100 CALM      29.97F
GAYLORD        LGT RAIN  49  47  93 VRB5      29.96F FOG
GRAYLING       RAIN      53  50  89 NW5       29.97F
HARBOR SPRINGS RAIN      50  48  95 CALM      29.97F
HOUGHTON LAKE  RAIN      52  51  97 NW5       29.96F FOG
MANISTEE       RAIN      51  50  96 CALM      29.96F
OSCODA         CLOUDY    57  53  89 NE5       29.94F
PELLSTON       LGT RAIN  50  49  96 SE3       29.98F
ROGERS CITY    RAIN      50  49  97 NW8       29.98F
TRAVERSE CITY  RAIN      53  51  93 NW3       29.96F
$$
MIZ007>008-015-230900-
EASTERN UPPER MICHIGAN

CITY           SKY/WX    TMP DP  RH WIND       PRES   REMARKS
KINROSS        LGT RAIN  49  48  97 W3        29.97F
MACKINAC ISLAN LGT RAIN  50  50 100 CALM      29.97F
NEWBERRY         N/A     46  45  97 CALM      29.95F
S. S. MARIE    LGT RAIN  51  49  92 W5        29.96F
MUNISING         N/A     42  42 100 S3        29.93F
$$
MIZ004>006-011>014-085-230900-
CENTRAL UPPER MICHIGAN

CITY           SKY/WX    TMP DP  RH WIND       PRES   REMARKS
MANISTIQUE     CLOUDY    43  37  81 CALM      29.95F
ESCANABA       CLOUDY    44  44 100 CALM      29.96F
MENOMINEE      CLOUDY    45  44  97 W3        29.97F FOG
SAWYER-GWINN   FOG       41  41  98 SW6       29.94S VSB 1
$$
MIZ001>003-009>011-084-230900-
WESTERN UPPER MICHIGAN

CITY           SKY/WX    TMP DP  RH WIND       PRES   REMARKS
IRON MOUNTAIN  FOG       34  33  96 CALM      29.93F VSB 1/4
HOUGHTON       PTCLDY    41  38  89 SE3       29.87F
COPPER HARBOR    N/A     46  39  76 SW9       29.88S
IRONWOOD       CLOUDY    46  39  76 SW7       29.89S
$$

ABBREVIATIONS USED IN REMARKS
   TC - TEMPERATURE IN CELSIUS
  WCI - WIND CHILL INDEX
   HX - HEAT INDEX
  VSB - VISIBILITY




USA.gov is the U.S. government's official web portal to all federal, state and local government web resources and services.